Location: Unspecified
(0.0000°N, 0.0000°E)
Time: 22:32:50
(UTC+00:00)

Vanguard 2 - Pass Details

Date: 09 October 2020
Orbit: 554 x 2937 km, 32.9° (Epoch: 27 October)

Event Time Altitude Azimuth Distance (km) Brightness Sun altitude
Rises 09:56:39 0° 303° (WNW) 2,824 10.2 61.7°
Reaches altitude 10° 09:58:58 10° 301° (WNW) 1,843 9.3 62.2°
Maximum altitude 10:02:55 78° 216° (SW) 569 8.1 63.2°
Drops below altitude 10° 10:07:13 10° 128° (SE) 1,994 10.2 64.2°
Sets 10:09:48 0° 127° (SE) 3,084 11.0 64.9°
